Location: Hurecourt
(47.9030°N, 6.0653°E)
Time: 08:00:12
(UTC+00:00)

SL-16 R/B - Pass Details

Date: 14 July 2020
Orbit: 985 x 1007 km, 99.5° (Epoch: 14 August)

Event Time Altitude Azimuth Distance (km) Brightness Sun altitude
Exits shadow 01:57:01 19° 200° (SSW) 2,187 3.7 -14.1°
Maximum altitude 02:01:08 42° 262° (W) 1,401 3.0 -13.8°
Drops below altitude 10° 02:07:03 10° 332° (NNW) 2,793 5.3 -13.2°
Sets 02:09:43 0° 340° (NNW) 3,748 6.1 -13.0°
